Location: Newark
(49.3000°N, 9.4667°E)
Time: 17:48:22
(UTC+00:00)

Tiros 1 - Pass Details

Date: 01 June 2019
Orbit: 631 x 664 km, 48.4° (Epoch: 18 June)

Event Time Altitude Azimuth Distance (km) Brightness Sun altitude
Rises 08:59:55 0° 262° (W) 2,919 10.2 51.2°
Reaches altitude 10° 09:02:13 10° 261° (W) 2,014 9.5 51.5°
Maximum altitude 09:06:52 80° 175° (S) 650 8.4 52.2°
Drops below altitude 10° 09:11:32 10° 89° (E) 2,031 10.3 52.8°
Sets 09:13:53 0° 89° (E) 2,946 11.0 53.1°
